Location: Luxembourg
(49.6117°N, 6.1300°E)
Time: 08:22:47
(UTC+01:00)

BlueWalker 3 - Pass Details

Date: 14 October 2024
Orbit: 470 x 481 km, 53.2° (Epoch: 13 November)

Event Time Altitude Azimuth Distance (km) Brightness Sun altitude
Exits shadow 04:36:28 15° 66° (ENE) 1,362 4.9 -32.2°
Drops below altitude 10° 04:37:09 10° 66° (ENE) 1,633 5.4 -32.1°
Sets 04:39:18 0° 68° (ENE) 2,513 6.6 -31.8°
